owner,sensor,date,latitude,longitude,air_pressure(mBar),qcFlag 
ADCP,ioos:station:NOAA.NDBC:WDEL1:1,2009-12-01T00:30:00Z,28.6620,-89.5510,1014.6,11111222 
ADCP,ioos:station:NOAA.NDBC:WDEL1:1,2009-12-01T01:30:00Z,28.6620,-89.5510,1015.7,11111222 
ADCP,ioos:station:NOAA.NDBC:WDEL1:1,2009-12-01T02:30:00Z,28.6620,-89.5510,1015.7,11111222 
ADCP,ioos:station:NOAA.NDBC:WDEL1:1,2009-12-01T03:30:00Z,28.6620,-89.5510,1017.0,11111222 
ADCP,ioos:station:NOAA.NDBC:WDEL1:1,2009-12-01T04:30:00Z,28.6620,-89.5510,1017.3,11111222 
ADCP,ioos:station:NOAA.NDBC:WDEL1:1,2009-12-01T05:30:00Z,28.6620,-89.5510,1016.5,11111222 
ADCP,ioos:station:NOAA.NDBC:WDEL1:1,2009-12-01T06:30:00Z,28.6620,-89.5510,1015.7,11111222 
ADCP,ioos:station:NOAA.NDBC:WDEL1:1,2009-12-01T07:30:00Z,28.6620,-89.5510,1015.3,11111222 
ADCP,ioos:station:NOAA.NDBC:WDEL1:1,2009-12-01T08:30:00Z,28.6620,-89.5510,1014.0,11111222 
ADCP,ioos:station:NOAA.NDBC:WDEL1:1,2009-12-01T09:30:00Z,28.6620,-89.5510,1014.9,11111222 
ADCP,ioos:station:NOAA.NDBC:WDEL1:1,2009-12-01T10:30:00Z,28.6620,-89.5510,1014.4,11111222 
ADCP,ioos:station:NOAA.NDBC:WDEL1:1,2009-12-01T11:30:00Z,28.6620,-89.5510,1014.3,11111222 
ADCP,ioos:station:NOAA.NDBC:WDEL1:1,2009-12-01T12:30:00Z,28.6620,-89.5510,1014.0,11111222 
ADCP,ioos:station:NOAA.NDBC:WDEL1:1,2009-12-01T13:30:00Z,28.6620,-89.5510,1012.6,11111222 
ADCP,ioos:station:NOAA.NDBC:WDEL1:1,2009-12-01T14:30:00Z,28.6620,-89.5510,1012.2,11111222 
ADCP,ioos:station:NOAA.NDBC:WDEL1:1,2009-12-01T15:30:00Z,28.6620,-89.5510,1012.2,11111222 
ADCP,ioos:station:NOAA.NDBC:WDEL1:1,2009-12-01T16:30:00Z,28.6620,-89.5510,1011.8,11111222 
ADCP,ioos:station:NOAA.NDBC:WDEL1:1,2009-12-01T17:30:00Z,28.6620,-89.5510,1009.9,11111222 
ADCP,ioos:station:NOAA.NDBC:WDEL1:1,2009-12-01T18:30:00Z,28.6620,-89.5510,1007.8,11111222 
ADCP,ioos:station:NOAA.NDBC:WDEL1:1,2009-12-01T19:30:00Z,28.6620,-89.5510,1006.7,11111222 
ADCP,ioos:station:NOAA.NDBC:WDEL1:1,2009-12-01T20:30:00Z,28.6620,-89.5510,1007.0,11111222 
ADCP,ioos:station:NOAA.NDBC:WDEL1:1,2009-12-01T21:30:00Z,28.6620,-89.5510,1006.0,11111222 
ADCP,ioos:station:NOAA.NDBC:WDEL1:1,2009-12-01T22:30:00Z,28.6620,-89.5510,1004.3,11111222 
ADCP,ioos:station:NOAA.NDBC:WDEL1:1,2009-12-01T23:30:00Z,28.6620,-89.5510,1004.6,11111222 
ADCP,ioos:station:NOAA.NDBC:WDEL1:1,2009-12-02T00:30:00Z,28.6620,-89.5510,1003.1,11111222 
ADCP,ioos:station:NOAA.NDBC:WDEL1:1,2009-12-02T01:30:00Z,28.6620,-89.5510,1003.2,11111222 
ADCP,ioos:station:NOAA.NDBC:WDEL1:1,2009-12-02T02:30:00Z,28.6620,-89.5510,1003.7,11111222 
ADCP,ioos:station:NOAA.NDBC:WDEL1:1,2009-12-02T03:30:00Z,28.6620,-89.5510,1003.8,11111222 
ADCP,ioos:station:NOAA.NDBC:WDEL1:1,2009-12-02T04:30:00Z,28.6620,-89.5510,1003.6,11111222 
ADCP,ioos:station:NOAA.NDBC:WDEL1:1,2009-12-02T05:30:00Z,28.6620,-89.5510,1002.7,11111222 
ADCP,ioos:station:NOAA.NDBC:WDEL1:1,2009-12-02T06:30:00Z,28.6620,-89.5510,1000.3,11111222 
ADCP,ioos:station:NOAA.NDBC:WDEL1:1,2009-12-02T07:30:00Z,28.6620,-89.5510,1001.5,11111222 
ADCP,ioos:station:NOAA.NDBC:WDEL1:1,2009-12-02T08:30:00Z,28.6620,-89.5510,1000.2,11111222 
ADCP,ioos:station:NOAA.NDBC:WDEL1:1,2009-12-02T09:30:00Z,28.6620,-89.5510,999.2,11111222 
ADCP,ioos:station:NOAA.NDBC:WDEL1:1,2009-12-02T10:30:00Z,28.6620,-89.5510,998.7,11111222 
ADCP,ioos:station:NOAA.NDBC:WDEL1:1,2009-12-02T11:30:00Z,28.6620,-89.5510,1000.8,11111222 
ADCP,ioos:station:NOAA.NDBC:WDEL1:1,2009-12-02T12:30:00Z,28.6620,-89.5510,1001.3,11111222 
ADCP,ioos:station:NOAA.NDBC:WDEL1:1,2009-12-02T13:30:00Z,28.6620,-89.5510,1003.3,11111222 
ADCP,ioos:station:NOAA.NDBC:WDEL1:1,2009-12-02T14:30:00Z,28.6620,-89.5510,1004.6,11111222 
ADCP,ioos:station:NOAA.NDBC:WDEL1:1,2009-12-02T15:30:00Z,28.6620,-89.5510,1006.1,11111222 
ADCP,ioos:station:NOAA.NDBC:WDEL1:1,2009-12-02T16:30:00Z,28.6620,-89.5510,1006.0,11111222 
ADCP,ioos:station:NOAA.NDBC:WDEL1:1,2009-12-02T17:30:00Z,28.6620,-89.5510,1005.9,11111222 
ADCP,ioos:station:NOAA.NDBC:WDEL1:1,2009-12-02T18:30:00Z,28.6620,-89.5510,1005.2,11111222 
ADCP,ioos:station:NOAA.NDBC:WDEL1:1,2009-12-02T19:30:00Z,28.6620,-89.5510,1004.9,11111222 
ADCP,ioos:station:NOAA.NDBC:WDEL1:1,2009-12-02T20:30:00Z,28.6620,-89.5510,1004.2,11111222 
ADCP,ioos:station:NOAA.NDBC:WDEL1:1,2009-12-02T21:30:00Z,28.6620,-89.5510,1005.0,11111222 
ADCP,ioos:station:NOAA.NDBC:WDEL1:1,2009-12-02T22:30:00Z,28.6620,-89.5510,1005.7,11111222 
ADCP,ioos:station:NOAA.NDBC:WDEL1:1,2009-12-02T23:30:00Z,28.6620,-89.5510,1007.0,11111222 
ADCP,ioos:station:NOAA.NDBC:WDEL1:1,2009-12-03T00:30:00Z,28.6620,-89.5510,1008.4,11111222 
ADCP,ioos:station:NOAA.NDBC:WDEL1:1,2009-12-03T01:30:00Z,28.6620,-89.5510,1009.2,11111222 
ADCP,ioos:station:NOAA.NDBC:WDEL1:1,2009-12-03T02:30:00Z,28.6620,-89.5510,1010.2,11111222 
ADCP,ioos:station:NOAA.NDBC:WDEL1:1,2009-12-03T03:30:00Z,28.6620,-89.5510,1011.2,11111222 
ADCP,ioos:station:NOAA.NDBC:WDEL1:1,2009-12-03T04:30:00Z,28.6620,-89.5510,1011.7,11111222 
ADCP,ioos:station:NOAA.NDBC:WDEL1:1,2009-12-03T05:30:00Z,28.6620,-89.5510,1011.7,11111222 
ADCP,ioos:station:NOAA.NDBC:WDEL1:1,2009-12-03T06:30:00Z,28.6620,-89.5510,1011.6,11111222 
ADCP,ioos:station:NOAA.NDBC:WDEL1:1,2009-12-03T07:30:00Z,28.6620,-89.5510,1012.1,11111222 
ADCP,ioos:station:NOAA.NDBC:WDEL1:1,2009-12-03T08:30:00Z,28.6620,-89.5510,1013.2,11111222 
ADCP,ioos:station:NOAA.NDBC:WDEL1:1,2009-12-03T09:30:00Z,28.6620,-89.5510,1014.2,11111222 
ADCP,ioos:station:NOAA.NDBC:WDEL1:1,2009-12-03T10:30:00Z,28.6620,-89.5510,1014.7,11111222 
ADCP,ioos:station:NOAA.NDBC:WDEL1:1,2009-12-03T11:30:00Z,28.6620,-89.5510,1015.1,11111222 
ADCP,ioos:station:NOAA.NDBC:WDEL1:1,2009-12-03T12:30:00Z,28.6620,-89.5510,1015.9,11111222 
ADCP,ioos:station:NOAA.NDBC:WDEL1:1,2009-12-03T13:30:00Z,28.6620,-89.5510,1016.8,11111222 
ADCP,ioos:station:NOAA.NDBC:WDEL1:1,2009-12-03T14:30:00Z,28.6620,-89.5510,1017.7,11111222 
ADCP,ioos:station:NOAA.NDBC:WDEL1:1,2009-12-03T15:30:00Z,28.6620,-89.5510,1018.5,11111222 
ADCP,ioos:station:NOAA.NDBC:WDEL1:1,2009-12-03T16:30:00Z,28.6620,-89.5510,1019.0,11111222 
ADCP,ioos:station:NOAA.NDBC:WDEL1:1,2009-12-03T17:30:00Z,28.6620,-89.5510,1019.0,11111222 
ADCP,ioos:station:NOAA.NDBC:WDEL1:1,2009-12-03T18:30:00Z,28.6620,-89.5510,1018.4,11111222 
ADCP,ioos:station:NOAA.NDBC:WDEL1:1,2009-12-03T19:30:00Z,28.6620,-89.5510,1018.3,11111222 
ADCP,ioos:station:NOAA.NDBC:WDEL1:1,2009-12-03T20:30:00Z,28.6620,-89.5510,1018.4,11111222 
ADCP,ioos:station:NOAA.NDBC:WDEL1:1,2009-12-03T21:30:00Z,28.6620,-89.5510,1018.5,11111222 
ADCP,ioos:station:NOAA.NDBC:WDEL1:1,2009-12-03T22:30:00Z,28.6620,-89.5510,1018.8,11111222 
ADCP,ioos:station:NOAA.NDBC:WDEL1:1,2009-12-03T23:30:00Z,28.6620,-89.5510,1019.0,11111222 
ADCP,ioos:station:NOAA.NDBC:WDEL1:1,2009-12-04T00:30:00Z,28.6620,-89.5510,1019.4,11111222 
ADCP,ioos:station:NOAA.NDBC:WDEL1:1,2009-12-04T01:30:00Z,28.6620,-89.5510,1019.9,11111222 
ADCP,ioos:station:NOAA.NDBC:WDEL1:1,2009-12-04T02:30:00Z,28.6620,-89.5510,1020.7,11111222 
ADCP,ioos:station:NOAA.NDBC:WDEL1:1,2009-12-04T03:30:00Z,28.6620,-89.5510,1021.1,11111222 
ADCP,ioos:station:NOAA.NDBC:WDEL1:1,2009-12-04T04:30:00Z,28.6620,-89.5510,1021.1,11111222 
ADCP,ioos:station:NOAA.NDBC:WDEL1:1,2009-12-04T05:30:00Z,28.6620,-89.5510,1020.3,11111222 
ADCP,ioos:station:NOAA.NDBC:WDEL1:1,2009-12-04T06:30:00Z,28.6620,-89.5510,1020.2,11111222 
ADCP,ioos:station:NOAA.NDBC:WDEL1:1,2009-12-04T07:30:00Z,28.6620,-89.5510,1020.1,11111222 
ADCP,ioos:station:NOAA.NDBC:WDEL1:1,2009-12-04T08:30:00Z,28.6620,-89.5510,1020.5,11111222 
ADCP,ioos:station:NOAA.NDBC:WDEL1:1,2009-12-04T09:30:00Z,28.6620,-89.5510,1019.7,11111222 
ADCP,ioos:station:NOAA.NDBC:WDEL1:1,2009-12-04T10:30:00Z,28.6620,-89.5510,1019.4,11111222 
ADCP,ioos:station:NOAA.NDBC:WDEL1:1,2009-12-04T11:30:00Z,28.6620,-89.5510,1019.5,11111222 
ADCP,ioos:station:NOAA.NDBC:WDEL1:1,2009-12-04T12:30:00Z,28.6620,-89.5510,1020.4,11111222 
ADCP,ioos:station:NOAA.NDBC:WDEL1:1,2009-12-04T13:30:00Z,28.6620,-89.5510,1020.6,11111222 
ADCP,ioos:station:NOAA.NDBC:WDEL1:1,2009-12-04T14:30:00Z,28.6620,-89.5510,1021.4,11111222 
ADCP,ioos:station:NOAA.NDBC:WDEL1:1,2009-12-04T15:30:00Z,28.6620,-89.5510,1020.4,11111222 
ADCP,ioos:station:NOAA.NDBC:WDEL1:1,2009-12-04T16:30:00Z,28.6620,-89.5510,1020.2,11111222 
ADCP,ioos:station:NOAA.NDBC:WDEL1:1,2009-12-04T17:30:00Z,28.6620,-89.5510,1019.3,11111222 
ADCP,ioos:station:NOAA.NDBC:WDEL1:1,2009-12-04T18:30:00Z,28.6620,-89.5510,1017.3,11111222 
ADCP,ioos:station:NOAA.NDBC:WDEL1:1,2009-12-04T19:30:00Z,28.6620,-89.5510,1015.3,11111222 
ADCP,ioos:station:NOAA.NDBC:WDEL1:1,2009-12-04T20:30:00Z,28.6620,-89.5510,1015.1,11111222 
ADCP,ioos:station:NOAA.NDBC:WDEL1:1,2009-12-04T21:30:00Z,28.6620,-89.5510,1014.8,11111222 
ADCP,ioos:station:NOAA.NDBC:WDEL1:1,2009-12-04T22:30:00Z,28.6620,-89.5510,1015.3,11111222 
ADCP,ioos:station:NOAA.NDBC:WDEL1:1,2009-12-04T23:30:00Z,28.6620,-89.5510,1015.8,11111222 
ADCP,ioos:station:NOAA.NDBC:WDEL1:1,2009-12-05T00:30:00Z,28.6620,-89.5510,1015.5,11111222 
ADCP,ioos:station:NOAA.NDBC:WDEL1:1,2009-12-05T01:30:00Z,28.6620,-89.5510,1015.7,11111222 
ADCP,ioos:station:NOAA.NDBC:WDEL1:1,2009-12-05T02:30:00Z,28.6620,-89.5510,1016.3,11111222 
ADCP,ioos:station:NOAA.NDBC:WDEL1:1,2009-12-05T03:30:00Z,28.6620,-89.5510,1017.9,11111222 
ADCP,ioos:station:NOAA.NDBC:WDEL1:1,2009-12-05T04:30:00Z,28.6620,-89.5510,1020.1,11111222 
ADCP,ioos:station:NOAA.NDBC:WDEL1:1,2009-12-05T05:30:00Z,28.6620,-89.5510,1020.1,11111222 
ADCP,ioos:station:NOAA.NDBC:WDEL1:1,2009-12-05T06:30:00Z,28.6620,-89.5510,1018.8,11111222 
ADCP,ioos:station:NOAA.NDBC:WDEL1:1,2009-12-05T07:30:00Z,28.6620,-89.5510,1019.0,11111222 
ADCP,ioos:station:NOAA.NDBC:WDEL1:1,2009-12-05T08:30:00Z,28.6620,-89.5510,1019.1,11111222 
ADCP,ioos:station:NOAA.NDBC:WDEL1:1,2009-12-05T09:30:00Z,28.6620,-89.5510,1019.3,11111222 
ADCP,ioos:station:NOAA.NDBC:WDEL1:1,2009-12-05T10:30:00Z,28.6620,-89.5510,1020.1,11111222 
ADCP,ioos:station:NOAA.NDBC:WDEL1:1,2009-12-05T11:30:00Z,28.6620,-89.5510,1020.9,11111222 
ADCP,ioos:station:NOAA.NDBC:WDEL1:1,2009-12-05T12:30:00Z,28.6620,-89.5510,1021.8,11111222 
ADCP,ioos:station:NOAA.NDBC:WDEL1:1,2009-12-05T13:30:00Z,28.6620,-89.5510,1022.0,11111222 
ADCP,ioos:station:NOAA.NDBC:WDEL1:1,2009-12-05T14:30:00Z,28.6620,-89.5510,1022.9,11111222 
ADCP,ioos:station:NOAA.NDBC:WDEL1:1,2009-12-05T15:30:00Z,28.6620,-89.5510,1023.3,11111222 
ADCP,ioos:station:NOAA.NDBC:WDEL1:1,2009-12-05T16:30:00Z,28.6620,-89.5510,1023.8,11111222 
ADCP,ioos:station:NOAA.NDBC:WDEL1:1,2009-12-05T17:30:00Z,28.6620,-89.5510,1023.8,11111222 
ADCP,ioos:station:NOAA.NDBC:WDEL1:1,2009-12-05T18:30:00Z,28.6620,-89.5510,1023.1,11111222 
ADCP,ioos:station:NOAA.NDBC:WDEL1:1,2009-12-05T19:30:00Z,28.6620,-89.5510,1022.4,11111222 
ADCP,ioos:station:NOAA.NDBC:WDEL1:1,2009-12-05T20:30:00Z,28.6620,-89.5510,1022.8,11111222 
ADCP,ioos:station:NOAA.NDBC:WDEL1:1,2009-12-05T21:30:00Z,28.6620,-89.5510,1022.9,11111222 
ADCP,ioos:station:NOAA.NDBC:WDEL1:1,2009-12-05T22:30:00Z,28.6620,-89.5510,1022.7,11111222 
ADCP,ioos:station:NOAA.NDBC:WDEL1:1,2009-12-05T23:30:00Z,28.6620,-89.5510,1022.8,11111222 
ADCP,ioos:station:NOAA.NDBC:WDEL1:1,2009-12-06T00:30:00Z,28.6620,-89.5510,1022.8,11111222 
ADCP,ioos:station:NOAA.NDBC:WDEL1:1,2009-12-06T01:30:00Z,28.6620,-89.5510,1022.8,11111222 
ADCP,ioos:station:NOAA.NDBC:WDEL1:1,2009-12-06T02:30:00Z,28.6620,-89.5510,1022.8,11111222 
ADCP,ioos:station:NOAA.NDBC:WDEL1:1,2009-12-06T03:30:00Z,28.6620,-89.5510,1022.8,11111222 
ADCP,ioos:station:NOAA.NDBC:WDEL1:1,2009-12-06T04:30:00Z,28.6620,-89.5510,1022.3,11111222 
ADCP,ioos:station:NOAA.NDBC:WDEL1:1,2009-12-06T05:30:00Z,28.6620,-89.5510,1022.0,11111222 
ADCP,ioos:station:NOAA.NDBC:WDEL1:1,2009-12-06T06:30:00Z,28.6620,-89.5510,1022.2,11111222 
ADCP,ioos:station:NOAA.NDBC:WDEL1:1,2009-12-06T07:30:00Z,28.6620,-89.5510,1021.9,11111222 
ADCP,ioos:station:NOAA.NDBC:WDEL1:1,2009-12-06T08:30:00Z,28.6620,-89.5510,1021.8,11111222 
ADCP,ioos:station:NOAA.NDBC:WDEL1:1,2009-12-06T09:30:00Z,28.6620,-89.5510,1021.7,11111222 
ADCP,ioos:station:NOAA.NDBC:WDEL1:1,2009-12-06T10:30:00Z,28.6620,-89.5510,1021.6,11111222 
ADCP,ioos:station:NOAA.NDBC:WDEL1:1,2009-12-06T11:30:00Z,28.6620,-89.5510,1021.6,11111222 
ADCP,ioos:station:NOAA.NDBC:WDEL1:1,2009-12-06T12:30:00Z,28.6620,-89.5510,1021.6,11111222 
ADCP,ioos:station:NOAA.NDBC:WDEL1:1,2009-12-06T13:30:00Z,28.6620,-89.5510,1021.2,11111222 
ADCP,ioos:station:NOAA.NDBC:WDEL1:1,2009-12-06T14:30:00Z,28.6620,-89.5510,1022.2,11111222 
ADCP,ioos:station:NOAA.NDBC:WDEL1:1,2009-12-06T15:30:00Z,28.6620,-89.5510,1023.1,11111222 
ADCP,ioos:station:NOAA.NDBC:WDEL1:1,2009-12-06T16:30:00Z,28.6620,-89.5510,1022.3,11111222 
ADCP,ioos:station:NOAA.NDBC:WDEL1:1,2009-12-06T17:30:00Z,28.6620,-89.5510,1021.3,11111222 
ADCP,ioos:station:NOAA.NDBC:WDEL1:1,2009-12-06T18:30:00Z,28.6620,-89.5510,1020.9,11111222 
ADCP,ioos:station:NOAA.NDBC:WDEL1:1,2009-12-06T19:30:00Z,28.6620,-89.5510,1019.5,11111222 
ADCP,ioos:station:NOAA.NDBC:WDEL1:1,2009-12-06T20:30:00Z,28.6620,-89.5510,1019.1,11111222 
ADCP,ioos:station:NOAA.NDBC:WDEL1:1,2009-12-06T21:30:00Z,28.6620,-89.5510,1019.5,11111222 
ADCP,ioos:station:NOAA.NDBC:WDEL1:1,2009-12-06T22:30:00Z,28.6620,-89.5510,1019.4,11111222 
ADCP,ioos:station:NOAA.NDBC:WDEL1:1,2009-12-06T23:30:00Z,28.6620,-89.5510,1019.8,11111222 
ADCP,ioos:station:NOAA.NDBC:WDEL1:1,2009-12-07T00:30:00Z,28.6620,-89.5510,1020.0,11111222 
ADCP,ioos:station:NOAA.NDBC:WDEL1:1,2009-12-07T01:30:00Z,28.6620,-89.5510,1019.7,11111222 
ADCP,ioos:station:NOAA.NDBC:WDEL1:1,2009-12-07T02:30:00Z,28.6620,-89.5510,1019.9,11111222 
ADCP,ioos:station:NOAA.NDBC:WDEL1:1,2009-12-07T03:30:00Z,28.6620,-89.5510,1019.8,11111222 
ADCP,ioos:station:NOAA.NDBC:WDEL1:1,2009-12-07T04:30:00Z,28.6620,-89.5510,1019.7,11111222 
ADCP,ioos:station:NOAA.NDBC:WDEL1:1,2009-12-07T05:30:00Z,28.6620,-89.5510,1019.6,11111222 
ADCP,ioos:station:NOAA.NDBC:WDEL1:1,2009-12-07T06:30:00Z,28.6620,-89.5510,1019.1,11111222 
ADCP,ioos:station:NOAA.NDBC:WDEL1:1,2009-12-07T07:30:00Z,28.6620,-89.5510,1018.7,11111222 
ADCP,ioos:station:NOAA.NDBC:WDEL1:1,2009-12-07T08:30:00Z,28.6620,-89.5510,1018.3,11111222 
ADCP,ioos:station:NOAA.NDBC:WDEL1:1,2009-12-07T09:30:00Z,28.6620,-89.5510,1018.6,11111222 
ADCP,ioos:station:NOAA.NDBC:WDEL1:1,2009-12-07T10:30:00Z,28.6620,-89.5510,1018.6,11111222 
ADCP,ioos:station:NOAA.NDBC:WDEL1:1,2009-12-07T11:30:00Z,28.6620,-89.5510,1018.6,11111222 
ADCP,ioos:station:NOAA.NDBC:WDEL1:1,2009-12-07T12:30:00Z,28.6620,-89.5510,1019.1,11111222 
ADCP,ioos:station:NOAA.NDBC:WDEL1:1,2009-12-07T13:30:00Z,28.6620,-89.5510,1019.4,11111222 
ADCP,ioos:station:NOAA.NDBC:WDEL1:1,2009-12-07T14:30:00Z,28.6620,-89.5510,1019.8,11111222 
ADCP,ioos:station:NOAA.NDBC:WDEL1:1,2009-12-07T15:30:00Z,28.6620,-89.5510,1020.7,11111222 
ADCP,ioos:station:NOAA.NDBC:WDEL1:1,2009-12-07T16:30:00Z,28.6620,-89.5510,1020.7,11111222 
ADCP,ioos:station:NOAA.NDBC:WDEL1:1,2009-12-07T17:30:00Z,28.6620,-89.5510,1020.5,11111222 
ADCP,ioos:station:NOAA.NDBC:WDEL1:1,2009-12-07T18:30:00Z,28.6620,-89.5510,1018.7,11111222 
ADCP,ioos:station:NOAA.NDBC:WDEL1:1,2009-12-07T19:30:00Z,28.6620,-89.5510,1018.4,11111222 
ADCP,ioos:station:NOAA.NDBC:WDEL1:1,2009-12-07T20:30:00Z,28.6620,-89.5510,1017.7,11111222 
ADCP,ioos:station:NOAA.NDBC:WDEL1:1,2009-12-07T21:30:00Z,28.6620,-89.5510,1017.8,11111222 
ADCP,ioos:station:NOAA.NDBC:WDEL1:1,2009-12-07T22:30:00Z,28.6620,-89.5510,1017.8,11111222 
ADCP,ioos:station:NOAA.NDBC:WDEL1:1,2009-12-07T23:30:00Z,28.6620,-89.5510,1017.9,11111222 
ADCP,ioos:station:NOAA.NDBC:WDEL1:1,2009-12-08T00:30:00Z,28.6620,-89.5510,1018.0,11111222 
ADCP,ioos:station:NOAA.NDBC:WDEL1:1,2009-12-08T01:30:00Z,28.6620,-89.5510,1017.8,11111222 
ADCP,ioos:station:NOAA.NDBC:WDEL1:1,2009-12-08T02:30:00Z,28.6620,-89.5510,1017.9,11111222 
ADCP,ioos:station:NOAA.NDBC:WDEL1:1,2009-12-08T03:30:00Z,28.6620,-89.5510,1018.3,11111222 
ADCP,ioos:station:NOAA.NDBC:WDEL1:1,2009-12-08T04:30:00Z,28.6620,-89.5510,1017.9,11111222 
ADCP,ioos:station:NOAA.NDBC:WDEL1:1,2009-12-08T05:30:00Z,28.6620,-89.5510,1016.5,11111222 
ADCP,ioos:station:NOAA.NDBC:WDEL1:1,2009-12-08T06:30:00Z,28.6620,-89.5510,1015.6,11111222 
ADCP,ioos:station:NOAA.NDBC:WDEL1:1,2009-12-08T07:30:00Z,28.6620,-89.5510,1015.2,11111222 
ADCP,ioos:station:NOAA.NDBC:WDEL1:1,2009-12-08T08:30:00Z,28.6620,-89.5510,1015.2,11111222 
ADCP,ioos:station:NOAA.NDBC:WDEL1:1,2009-12-08T09:30:00Z,28.6620,-89.5510,1014.4,11111222 
ADCP,ioos:station:NOAA.NDBC:WDEL1:1,2009-12-08T10:30:00Z,28.6620,-89.5510,1014.8,11111222 
ADCP,ioos:station:NOAA.NDBC:WDEL1:1,2009-12-08T11:30:00Z,28.6620,-89.5510,1014.7,11111222 
ADCP,ioos:station:NOAA.NDBC:WDEL1:1,2009-12-08T12:30:00Z,28.6620,-89.5510,1014.9,11111222 
ADCP,ioos:station:NOAA.NDBC:WDEL1:1,2009-12-08T13:30:00Z,28.6620,-89.5510,1015.2,11111222 
ADCP,ioos:station:NOAA.NDBC:WDEL1:1,2009-12-08T14:30:00Z,28.6620,-89.5510,1015.9,11111222 
ADCP,ioos:station:NOAA.NDBC:WDEL1:1,2009-12-08T15:30:00Z,28.6620,-89.5510,1015.7,11111222 
ADCP,ioos:station:NOAA.NDBC:WDEL1:1,2009-12-08T16:30:00Z,28.6620,-89.5510,1014.8,11111222 
ADCP,ioos:station:NOAA.NDBC:WDEL1:1,2009-12-08T17:30:00Z,28.6620,-89.5510,1013.7,11111222 
ADCP,ioos:station:NOAA.NDBC:WDEL1:1,2009-12-08T18:30:00Z,28.6620,-89.5510,1012.3,11111222 
ADCP,ioos:station:NOAA.NDBC:WDEL1:1,2009-12-08T19:30:00Z,28.6620,-89.5510,1011.3,11111222 
ADCP,ioos:station:NOAA.NDBC:WDEL1:1,2009-12-08T20:30:00Z,28.6620,-89.5510,1010.0,11111222 
ADCP,ioos:station:NOAA.NDBC:WDEL1:1,2009-12-08T21:30:00Z,28.6620,-89.5510,1009.5,11111222 
ADCP,ioos:station:NOAA.NDBC:WDEL1:1,2009-12-08T22:30:00Z,28.6620,-89.5510,1008.9,11111222 
ADCP,ioos:station:NOAA.NDBC:WDEL1:1,2009-12-08T23:30:00Z,28.6620,-89.5510,1008.6,11111222 
ADCP,ioos:station:NOAA.NDBC:WDEL1:1,2009-12-09T00:30:00Z,28.6620,-89.5510,1008.6,11111222 
ADCP,ioos:station:NOAA.NDBC:WDEL1:1,2009-12-09T01:30:00Z,28.6620,-89.5510,1008.5,11111222 
ADCP,ioos:station:NOAA.NDBC:WDEL1:1,2009-12-09T02:30:00Z,28.6620,-89.5510,1008.8,11111222 
ADCP,ioos:station:NOAA.NDBC:WDEL1:1,2009-12-09T03:30:00Z,28.6620,-89.5510,1009.5,11111222 
ADCP,ioos:station:NOAA.NDBC:WDEL1:1,2009-12-09T04:30:00Z,28.6620,-89.5510,1009.3,11111222 
ADCP,ioos:station:NOAA.NDBC:WDEL1:1,2009-12-09T05:30:00Z,28.6620,-89.5510,1008.9,11111222 
ADCP,ioos:station:NOAA.NDBC:WDEL1:1,2009-12-09T06:30:00Z,28.6620,-89.5510,1008.6,11111222 
ADCP,ioos:station:NOAA.NDBC:WDEL1:1,2009-12-09T07:30:00Z,28.6620,-89.5510,1008.5,11111222 
ADCP,ioos:station:NOAA.NDBC:WDEL1:1,2009-12-09T08:30:00Z,28.6620,-89.5510,1008.1,11111222 
ADCP,ioos:station:NOAA.NDBC:WDEL1:1,2009-12-09T09:30:00Z,28.6620,-89.5510,1008.5,11111222 
ADCP,ioos:station:NOAA.NDBC:WDEL1:1,2009-12-09T10:30:00Z,28.6620,-89.5510,1008.2,11111222 
ADCP,ioos:station:NOAA.NDBC:WDEL1:1,2009-12-09T11:30:00Z,28.6620,-89.5510,1008.3,11111222 
ADCP,ioos:station:NOAA.NDBC:WDEL1:1,2009-12-09T12:30:00Z,28.6620,-89.5510,1008.5,11111222 
ADCP,ioos:station:NOAA.NDBC:WDEL1:1,2009-12-09T13:30:00Z,28.6620,-89.5510,1008.7,11111222 
ADCP,ioos:station:NOAA.NDBC:WDEL1:1,2009-12-09T14:30:00Z,28.6620,-89.5510,1009.5,11111222 
ADCP,ioos:station:NOAA.NDBC:WDEL1:1,2009-12-09T15:30:00Z,28.6620,-89.5510,1010.1,11111222 
ADCP,ioos:station:NOAA.NDBC:WDEL1:1,2009-12-09T16:30:00Z,28.6620,-89.5510,1010.0,11111222 
ADCP,ioos:station:NOAA.NDBC:WDEL1:1,2009-12-09T17:30:00Z,28.6620,-89.5510,1010.2,11111222 
ADCP,ioos:station:NOAA.NDBC:WDEL1:1,2009-12-09T18:30:00Z,28.6620,-89.5510,1009.4,11111222 
ADCP,ioos:station:NOAA.NDBC:WDEL1:1,2009-12-09T19:30:00Z,28.6620,-89.5510,1008.6,11111222 
ADCP,ioos:station:NOAA.NDBC:WDEL1:1,2009-12-09T20:30:00Z,28.6620,-89.5510,1008.7,11111222 
ADCP,ioos:station:NOAA.NDBC:WDEL1:1,2009-12-09T21:30:00Z,28.6620,-89.5510,1009.1,11111222 
ADCP,ioos:station:NOAA.NDBC:WDEL1:1,2009-12-09T22:30:00Z,28.6620,-89.5510,1009.8,11111222 
ADCP,ioos:station:NOAA.NDBC:WDEL1:1,2009-12-09T23:30:00Z,28.6620,-89.5510,1010.5,11111222 
ADCP,ioos:station:NOAA.NDBC:WDEL1:1,2009-12-10T00:30:00Z,28.6620,-89.5510,1011.3,11111222 
ADCP,ioos:station:NOAA.NDBC:WDEL1:1,2009-12-10T01:30:00Z,28.6620,-89.5510,1012.0,11111222 
ADCP,ioos:station:NOAA.NDBC:WDEL1:1,2009-12-10T02:30:00Z,28.6620,-89.5510,1012.4,11111222 
ADCP,ioos:station:NOAA.NDBC:WDEL1:1,2009-12-10T03:30:00Z,28.6620,-89.5510,1013.0,11111222 
ADCP,ioos:station:NOAA.NDBC:WDEL1:1,2009-12-10T04:30:00Z,28.6620,-89.5510,1013.4,11111222 
ADCP,ioos:station:NOAA.NDBC:WDEL1:1,2009-12-10T05:30:00Z,28.6620,-89.5510,1013.4,11111222 
ADCP,ioos:station:NOAA.NDBC:WDEL1:1,2009-12-10T06:30:00Z,28.6620,-89.5510,1013.7,11111222 
ADCP,ioos:station:NOAA.NDBC:WDEL1:1,2009-12-10T07:30:00Z,28.6620,-89.5510,1013.8,11111222 
ADCP,ioos:station:NOAA.NDBC:WDEL1:1,2009-12-10T08:30:00Z,28.6620,-89.5510,1014.3,11111222 
ADCP,ioos:station:NOAA.NDBC:WDEL1:1,2009-12-10T09:30:00Z,28.6620,-89.5510,1015.1,11111222 
ADCP,ioos:station:NOAA.NDBC:WDEL1:1,2009-12-10T10:30:00Z,28.6620,-89.5510,1016.2,11111222 
ADCP,ioos:station:NOAA.NDBC:WDEL1:1,2009-12-10T11:30:00Z,28.6620,-89.5510,1016.4,11111222 
ADCP,ioos:station:NOAA.NDBC:WDEL1:1,2009-12-10T12:30:00Z,28.6620,-89.5510,1017.3,11111222 
ADCP,ioos:station:NOAA.NDBC:WDEL1:1,2009-12-10T13:30:00Z,28.6620,-89.5510,1017.9,11111222 
ADCP,ioos:station:NOAA.NDBC:WDEL1:1,2009-12-10T14:30:00Z,28.6620,-89.5510,1019.1,11111222 
ADCP,ioos:station:NOAA.NDBC:WDEL1:1,2009-12-10T15:30:00Z,28.6620,-89.5510,1020.1,11111222 
ADCP,ioos:station:NOAA.NDBC:WDEL1:1,2009-12-10T16:30:00Z,28.6620,-89.5510,1021.0,11111222 
ADCP,ioos:station:NOAA.NDBC:WDEL1:1,2009-12-10T17:30:00Z,28.6620,-89.5510,1020.5,11111222 
ADCP,ioos:station:NOAA.NDBC:WDEL1:1,2009-12-10T18:30:00Z,28.6620,-89.5510,1019.4,11111222 
ADCP,ioos:station:NOAA.NDBC:WDEL1:1,2009-12-10T19:30:00Z,28.6620,-89.5510,1019.1,11111222 
ADCP,ioos:station:NOAA.NDBC:WDEL1:1,2009-12-10T20:30:00Z,28.6620,-89.5510,1019.7,11111222 
ADCP,ioos:station:NOAA.NDBC:WDEL1:1,2009-12-10T21:30:00Z,28.6620,-89.5510,1019.8,11111222 
ADCP,ioos:station:NOAA.NDBC:WDEL1:1,2009-12-10T22:30:00Z,28.6620,-89.5510,1020.2,11111222 
ADCP,ioos:station:NOAA.NDBC:WDEL1:1,2009-12-10T23:30:00Z,28.6620,-89.5510,1020.1,11111222 
ADCP,ioos:station:NOAA.NDBC:WDEL1:1,2009-12-11T00:30:00Z,28.6620,-89.5510,1020.9,11111222 
ADCP,ioos:station:NOAA.NDBC:WDEL1:1,2009-12-11T01:30:00Z,28.6620,-89.5510,1021.5,11111222 
ADCP,ioos:station:NOAA.NDBC:WDEL1:1,2009-12-11T02:30:00Z,28.6620,-89.5510,1022.5,11111222 
ADCP,ioos:station:NOAA.NDBC:WDEL1:1,2009-12-11T03:30:00Z,28.6620,-89.5510,1022.4,11111222 
ADCP,ioos:station:NOAA.NDBC:WDEL1:1,2009-12-11T04:30:00Z,28.6620,-89.5510,1022.0,11111222 
ADCP,ioos:station:NOAA.NDBC:WDEL1:1,2009-12-11T05:30:00Z,28.6620,-89.5510,1021.8,11111222 
ADCP,ioos:station:NOAA.NDBC:WDEL1:1,2009-12-11T06:30:00Z,28.6620,-89.5510,1021.8,11111222 
ADCP,ioos:station:NOAA.NDBC:WDEL1:1,2009-12-11T07:30:00Z,28.6620,-89.5510,1022.2,11111222 
ADCP,ioos:station:NOAA.NDBC:WDEL1:1,2009-12-11T08:30:00Z,28.6620,-89.5510,1022.2,11111222 
ADCP,ioos:station:NOAA.NDBC:WDEL1:1,2009-12-11T09:30:00Z,28.6620,-89.5510,1021.8,11111222 
ADCP,ioos:station:NOAA.NDBC:WDEL1:1,2009-12-11T10:30:00Z,28.6620,-89.5510,1021.4,11111222 
ADCP,ioos:station:NOAA.NDBC:WDEL1:1,2009-12-11T11:30:00Z,28.6620,-89.5510,1021.6,11111222 
ADCP,ioos:station:NOAA.NDBC:WDEL1:1,2009-12-11T12:30:00Z,28.6620,-89.5510,1022.4,11111222 
ADCP,ioos:station:NOAA.NDBC:WDEL1:1,2009-12-11T13:30:00Z,28.6620,-89.5510,1022.4,11111222 
ADCP,ioos:station:NOAA.NDBC:WDEL1:1,2009-12-11T14:30:00Z,28.6620,-89.5510,1023.0,11111222 
ADCP,ioos:station:NOAA.NDBC:WDEL1:1,2009-12-11T15:30:00Z,28.6620,-89.5510,1023.2,11111222 
ADCP,ioos:station:NOAA.NDBC:WDEL1:1,2009-12-11T16:30:00Z,28.6620,-89.5510,1023.9,11111222 
ADCP,ioos:station:NOAA.NDBC:WDEL1:1,2009-12-11T17:30:00Z,28.6620,-89.5510,1024.4,11111222 
ADCP,ioos:station:NOAA.NDBC:WDEL1:1,2009-12-11T18:30:00Z,28.6620,-89.5510,1023.5,11111222 
ADCP,ioos:station:NOAA.NDBC:WDEL1:1,2009-12-11T19:30:00Z,28.6620,-89.5510,1022.4,11111222 
ADCP,ioos:station:NOAA.NDBC:WDEL1:1,2009-12-11T20:30:00Z,28.6620,-89.5510,1021.4,11111222 
ADCP,ioos:station:NOAA.NDBC:WDEL1:1,2009-12-11T21:30:00Z,28.6620,-89.5510,1022.1,11111222 
ADCP,ioos:station:NOAA.NDBC:WDEL1:1,2009-12-11T22:30:00Z,28.6620,-89.5510,1022.5,11111222 